User: anonymous   Login
Location: Borea
(45.6167°N, 23.0167°E)
Time: 20:54:53
(UTC+00:00)
Language:

CZ-6A DEB - Orbit

View from above orbital plane
View from above orbital plane
View from above satellite
View from above satellite

Ground track
Ground track

The orbit data is extracted from the following two-line orbital elements,

1 56637U 22151AFM 24057.53165756  .00009522  00000-0  27472-2 0  9996
2 56637  98.9273  90.4966 0145625  18.0639 342.5645 14.38823390 55203
Epoch (UTC): 26 February 2024 12:45:35
Eccentricity: 0.0145625
inclination: 98.9273°
perigee height: 658 km
apogee height: 866 km
right ascension of ascending node: 90.4966°
argument of perigee: 18.0639°
revolutions per day: 14.38823390
mean anomaly at epoch: 342.5645°
orbit number at epoch: 5520

The dashed part of the orbit path shows where the satellite is in the earth's shadow,  

DLR